Flag for Canada Weather past 2 weeks in Qikiqtarjuaq, Nunavut, Canada

-15 °F


Feels Like: -15 °F
Forecast: -10 / -4 °F
Wind: No wind

Location: Broughton Island Airport

Current Time: Nov 28, 2015 at 7:26:15 AM

Latest Report: Nov 28, 2015 at 7:00 AM

Visibility: 9 mi

Pressure: 29.78 "Hg

Humidity: 76%

Dew point: -20 °F

Location of QikiqtarjuaqLocation

Historic Weather in Qikiqtarjuaq — Graph


Qikiqtarjuaq temperature yesterday

Maximum temperature yesterday: 3 °F (at 7:00 AM)
Minimum temperature yesterday: -6 °F (at 9:03 PM)
Average temperature yesterday: 0 °F

Past Weeks' High & Low Weather Summary

High39 °F (Nov 19, 4:00 AM)93% (Nov 19, 9:00 PM)30.38 "Hg (Nov 19, 9:00 PM)
Low-13 °F (Nov 28, 3:00 AM)36% (Nov 21, 6:00 AM)29.19 "Hg (Nov 20, 1:00 AM)
Average14 °F76%29.84 "Hg
* Reported Nov 13 6:00 AM — Nov 28 6:00 AM, Qikiqtarjuaq, Weather by CustomWeather, © 2015

Note: Actual official high and low records may vary slightly from our data, if they occured in-between our weather recording intervals... More about our weather records


Qikiqtarjuaq weather history for previous 24 hours

Time TempWeatherWind HumidityBarometerVisibility
6:00 AM
Sat, Nov 28
-8 °FClear.2 mph77%29.78 "Hg9 mi
5:00 AM-9 °FClear.No wind77%29.77 "Hg9 mi
4:00 AM-11 °FClear.No wind76%29.77 "Hg9 mi
3:00 AM-13 °FClear.2 mph83%29.76 "Hg9 mi
2:00 AM-11 °FClear.3 mph76%29.76 "Hg9 mi
1:00 AM-9 °FClear.5 mph77%29.75 "Hg9 mi
12:00 AM-6 °FPassing clouds.7 mph84%29.75 "Hg9 mi
11:49 PM
Fri, Nov 27
-6 °FPassing clouds.6 mph84%29.75 "Hg9 mi
11:03 PM-6 °FLight snow. Overcast.6 mph84%29.75 "Hg9 mi
10:00 PM-4 °FOvercast.2 mph77%29.75 "Hg8 mi
9:03 PM-6 °FLight snow. Passing clouds.3 mph84%29.74 "Hg9 mi
8:00 PM0 °FLight snow. Overcast.10 mph84%29.73 "Hg7 mi
7:00 PM0 °FMostly cloudy.9 mph84%29.73 "Hg9 mi
6:02 PM0 °FLight snow. Overcast.5 mph84%29.72 "Hg2 mi
5:01 PM0 °FLight snow. Overcast.2 mph84%29.71 "Hg4 mi
4:00 PM1 °FSnow flurries. Overcast.2 mph78%29.71 "Hg6 mi
3:00 PM1 °FSnow flurries. Overcast.2 mph85%29.70 "Hg3 mi
2:00 PM1 °FSnow flurries. Overcast.3 mph85%29.71 "Hg1 mi
1:00 PM1 °FSnow flurries. Overcast.No wind92%29.70 "Hg4 mi
12:00 PM3 °FSnow flurries. Overcast.2 mph85%29.70 "Hg1 mi
11:00 AM1 °FSnow flurries. Overcast.No wind85%29.71 "Hg4 mi
10:00 AM1 °FSnow flurries. Overcast.No wind85%29.71 "Hg3 mi
9:48 AM1 °FSnow flurries. Overcast.No wind85%29.71 "Hg3 mi
9:00 AM1 °FLight snow. Overcast.2 mph85%29.72 "Hg6 mi
8:00 AM1 °FLight snow. Overcast.2 mph85%29.72 "Hg3 mi
7:49 AM3 °FLight snow. Overcast.No wind85%29.72 "Hg3 mi
7:00 AM3 °FLight snow. Overcast.No wind85%29.72 "Hg1 mi
Weather by CustomWeather, © 2015

See weather overviewHow to use our weather pages